Flag for Burundi Weather past 2 weeks in Bujumbura, Burundi

Now
84 °F

Sunny.


Feels Like: 84 °F
Forecast: 65 / 88 °F
Wind: 14 mph from West

Location: Kigoma Airport

Current Time: Aug 22, 2014 at 1:53:29 PM

Latest Report: Aug 22, 2014 at 1:00 PM


Visibility: 10 mi

Pressure: 30.04 "Hg

Humidity: 45%

Dew point: 61 °F

Location of BujumburaLocation

Historic Weather in Bujumbura — Graph

°F

Bujumbura temperature yesterday

Maximum temperature yesterday: 88 °F (at 11:00 AM)
Minimum temperature yesterday: 68 °F (at 4:00 AM)
Average temperature yesterday: 78 °F

Past Weeks' High & Low Weather Summary

 TemperatureHumidityPressure
High97 °F (Aug 10, 6:00 PM)88% (Aug 10, 9:00 PM)30.18 "Hg (Aug 10, 9:00 PM)
Low63 °F (Aug 9, 6:00 AM)25% (Aug 21, 11:00 AM)29.98 "Hg (Aug 21, 4:00 PM)
Average78 °F57%30.09 "Hg
* Reported Aug 7 12:00 Noon — Aug 22 12:00 Noon, Bujumbura, Weather by CustomWeather, © 2014

Note: Actual official high and low records may vary slightly from our data, if they occured in-between our weather recording intervals... More about our weather records

Advertising

Bujumbura weather history for previous 24 hours

 ConditionsComfort  
Time TempWeatherWind HumidityBarometerVisibility
12:00 PM
Aug 22
86 °FSunny.12 mph46%30.07 "Hg10 mi
11:00 AM86 °FSunny.12 mph43%30.09 "Hg10 mi
10:00 AM82 °FPassing clouds.5 mph51%30.12 "HgN/A
8:00 AM70 °FScattered clouds.No wind69%30.09 "HgN/A
7:00 AM68 °FPartly sunny.No wind69%30.07 "HgN/A
6:00 AM68 °FPassing clouds.No wind69%30.04 "HgN/A
5:00 AM66 °FPassing clouds.No wind73%30.04 "HgN/A
11:00 PM
Aug 21
72 °FClear.No wind65%30.07 "Hg10 mi
10:00 PM73 °FClear.No wind57%30.07 "Hg10 mi
9:00 PM73 °FPassing clouds.No wind57%30.07 "HgN/A
8:00 PM75 °FPassing clouds.No wind65%30.04 "HgN/A
7:00 PM79 °FClear.No wind58%30.04 "Hg10 mi
6:00 PM81 °FSunny.No wind48%30.01 "Hg10 mi
5:00 PM84 °FSunny.6 mph35%30.01 "Hg10 mi
4:00 PM86 °FPassing clouds.12 mph35%29.98 "HgN/A
3:00 PM86 °FPassing clouds.12 mph35%30.01 "HgN/A
2:00 PM86 °FPassing clouds.17 mph35%30.04 "HgN/A
1:00 PM86 °FPassing clouds.21 mph35%30.07 "HgN/A
Weather by CustomWeather, © 2014

See weather overviewHow to use our weather pages